sat.trackr.live / text

‹ back to catalog

KORSAT-3

NORAD 63630 · 2025-081A

PAYLOAD ACTIVE UNKNOWN

§ Identity

Operator
Country
SKOR
Launch date
2025-04-22
Launch site
AFETR
Launch vehicle
Mass (kg)
RCS (m²)

External: N2YO · Heavens-Above · Gunter

§ Orbital elements

Epoch: 2026-05-25T05:02:28.679424Z

Period
96.09 min
Inclination
45.4106°
Eccentricity
0.0004589
Mean motion
14.98606554 rev/d
Perigee alt
568.0 km
Apogee alt
574.4 km
Semi-major
6,949.3 km
B*
2.3842e-4
RAAN
94.9890°
Arg perigee
82.4084°
Mean anomaly
277.7315°
Rev number
5,973

§ Raw data

KORSAT-31 63630U 25081A   26145.21005416  .00002675  00000+0  23842-3 0  99922 63630  45.4106  94.9890 0004589  82.4084 277.7315 14.98606554 59735

JSON: /api/v1/satellites/63630 · /tle

For live sub-satellite position, see the globe view (requires WebGL).

§ Visibility from observer

Set your observer location to see the next 7 days of passes ≥ 10°. The values pass through the URL so the page stays shareable.

No JS? Fill the form by hand. The geolocation button needs JavaScript.